Theta_e
353 354 353 352 353 354 353 353 351 350 350 350 350 350 352 354 355 354 355 353 353 353 352 350 344 342 342 340 340 341 341 341 343 347 349 350 350 349 348 347 348 348 348 348 348 348 348 349 350 349 349 350 350 349 350 351 352 352 353 352 350 349 349 348 348 350 349 350 350 350 352 351 352 352 351 352 352 352 351 351 351 351 351 350 349
353 353 353 352 351 351 350 351 349 350 349 351 351 351 351 353 355 355 354 353 352 352 351 348 344 342 341 341 343 345 344 345 348 351 352 350 348 349 348 348 348 348 348 348 349 348 349 350 349 349 349 349 349 348 349 351 351 351 352 351 349 349 348 348 348 350 349 349 350 351 352 352 352 352 352 352 352 352 352 352 352 351 351 350 350
353 353 352 351 351 350 349 349 348 349 349 349 349 350 350 350 353 352 352 351 350 350 349 346 343 341 342 345 347 346 347 349 350 350 351 349 348 349 350 349 349 348 348 349 350 350 351 351 350 350 349 350 349 349 351 351 351 350 351 350 348 349 349 348 348 349 349 349 351 352 351 351 351 351 350 351 352 352 352 353 352 351 350 350 350
353 352 351 350 350 350 348 347 345 344 344 344 343 343 343 345 346 346 347 347 348 347 346 344 343 343 346 349 349 349 349 349 350 350 350 349 349 349 350 350 349 348 349 350 350 350 351 352 351 350 350 351 350 350 351 350 351 351 351 351 349 349 348 348 350 350 349 349 350 351 351 351 351 351 350 350 352 352 352 352 351 350 350 350 349
353 351 351 351 350 350 349 347 344 342 342 343 342 342 342 342 342 343 344 345 346 345 346 346 347 348 349 350 350 350 349 349 351 351 350 349 350 350 350 351 350 349 349 350 350 351 352 351 351 350 351 352 352 351 349 349 351 351 351 352 351 350 349 348 349 350 349 350 351 350 350 351 351 351 350 350 352 352 352 351 350 350 350 349 350
353 351 350 351 351 350 348 348 345 346 346 347 347 348 348 347 347 346 346 347 348 348 349 351 352 352 351 351 350 351 350 350 351 351 350 350 351 351 351 351 351 349 349 350 350 352 352 350 350 350 351 351 352 351 350 350 350 349 351 351 351 350 349 348 347 349 350 350 350 350 350 350 350 349 349 349 351 351 351 351 350 349 350 349 349
353 352 351 352 352 348 346 346 348 350 350 351 351 352 352 351 350 350 350 350 350 351 353 353 354 352 350 350 350 350 349 350 350 349 350 351 352 351 350 350 351 350 350 350 350 352 352 350 349 350 350 351 352 352 350 350 350 349 349 349 349 348 348 347 347 348 350 349 349 351 351 349 348 349 349 349 351 351 350 350 350 349 349 349 349
352 352 351 352 352 346 346 348 350 351 352 353 352 353 353 352 352 351 352 352 351 352 354 354 353 353 352 351 351 350 350 350 349 349 351 351 351 351 349 350 351 351 351 351 351 351 352 351 350 350 349 350 351 352 351 350 350 349 349 349 348 348 347 346 347 349 350 349 349 351 350 349 348 348 348 348 349 349 348 349 349 348 349 349 348
352 352 351 353 351 346 347 350 351 352 354 353 352 353 353 353 353 353 353 352 352 353 353 353 353 354 353 352 352 351 350 350 349 350 352 352 352 351 350 351 351 351 351 350 351 351 351 351 349 349 350 350 351 352 351 351 351 350 350 349 347 346 344 345 349 350 350 349 350 351 350 351 350 349 348 348 348 347 348 347 347 347 348 349 348
352 352 351 353 350 347 349 352 352 353 353 352 352 353 353 353 354 353 353 353 353 354 353 353 353 353 353 353 352 351 350 349 350 351 353 353 352 352 352 351 352 352 351 350 351 351 351 350 349 349 350 351 351 351 351 351 351 351 349 348 345 343 344 347 350 351 350 349 350 350 350 351 350 350 349 348 348 348 349 348 347 347 348 348 346
352 351 352 352 350 348 351 352 353 354 352 351 352 352 353 354 353 353 353 353 354 353 353 353 352 353 353 352 350 349 349 350 350 352 352 352 352 352 352 350 350 352 351 351 351 350 350 349 349 349 351 350 349 349 350 351 350 349 347 345 344 343 346 349 351 351 349 348 350 350 350 349 348 349 349 349 349 348 349 348 347 347 347 347 345
351 350 352 352 349 350 353 352 352 353 352 352 352 352 353 353 353 354 353 353 354 354 354 354 352 352 352 351 349 349 349 349 350 352 352 351 352 352 350 349 350 351 350 351 349 349 349 349 350 351 351 350 349 347 349 350 348 346 345 343 342 344 348 350 352 351 348 348 349 349 350 349 347 348 349 349 349 348 348 348 348 347 348 347 345
350 350 352 352 350 352 353 352 351 352 352 352 352 353 353 353 354 354 353 353 354 354 354 353 352 353 353 351 350 348 348 349 350 352 351 351 351 349 349 349 351 351 350 351 350 348 348 348 349 350 350 351 351 350 351 350 347 346 346 344 343 345 348 351 352 352 350 349 349 348 349 349 348 347 348 349 349 348 347 347 348 348 347 346 344
349 349 351 353 352 352 353 352 352 352 352 352 353 353 354 354 354 354 353 355 354 354 354 352 352 353 354 353 351 349 350 351 351 351 351 352 350 349 350 350 351 351 350 351 351 349 348 347 348 348 350 351 351 351 351 350 349 349 348 346 344 346 349 350 352 353 351 350 349 348 347 348 349 347 348 348 348 347 347 347 347 348 347 345 344
349 349 350 353 352 351 352 352 352 352 352 353 353 354 354 353 353 353 354 354 354 353 354 353 353 353 353 353 351 350 352 352 352 352 352 353 352 351 351 352 351 351 351 351 351 351 350 349 348 349 351 350 350 350 350 350 350 350 346 343 342 346 351 351 352 353 352 352 351 348 347 348 348 348 347 347 347 347 347 347 348 348 347 345 343
349 348 349 352 353 353 352 351 352 352 353 353 353 353 353 353 353 353 354 353 354 354 354 354 353 353 352 353 352 353 352 352 353 352 352 352 351 352 352 352 352 352 352 351 351 351 350 350 349 349 349 349 349 349 349 349 350 348 344 341 342 346 350 351 352 351 352 353 352 349 347 347 347 347 347 346 346 347 346 347 348 348 347 345 344
348 347 350 352 354 353 353 352 351 351 353 353 353 352 351 351 351 352 352 352 353 353 353 353 353 353 353 353 353 353 352 352 352 351 351 351 351 352 352 352 352 352 352 351 351 350 351 351 350 349 348 348 349 349 349 350 349 348 345 341 341 344 348 349 350 350 351 352 350 349 348 347 347 347 347 346 347 347 346 347 348 348 347 346 345
348 348 350 352 354 353 353 353 351 352 354 353 351 350 349 349 351 352 352 352 353 352 352 352 352 353 353 351 352 352 353 352 351 349 349 349 351 351 352 351 351 352 352 352 350 350 351 350 348 348 348 348 348 349 349 349 349 349 346 341 340 343 347 348 348 349 351 351 348 347 347 347 347 347 346 346 348 347 347 347 347 347 347 347 346
348 348 350 351 353 352 352 353 353 353 354 353 352 349 348 350 352 353 353 352 352 352 352 353 352 352 351 350 350 351 353 352 350 348 349 349 350 350 350 350 350 351 351 351 351 351 351 349 347 347 346 347 347 348 348 349 349 349 346 341 341 344 347 347 348 349 350 350 348 346 346 346 347 346 345 345 346 346 346 347 347 348 347 346 346
348 348 349 350 352 352 351 352 354 355 354 354 353 351 349 350 353 353 353 352 352 353 353 353 352 352 350 349 350 352 354 352 351 350 350 350 350 350 350 351 350 350 351 351 350 350 350 349 349 347 346 346 347 347 348 348 349 349 346 342 344 347 347 347 348 348 348 348 349 346 344 345 346 346 346 346 345 345 345 344 346 348 346 345 345
348 349 350 350 351 352 351 351 352 354 354 355 354 353 350 350 353 353 353 353 352 353 353 352 352 351 349 350 353 356 356 355 354 352 351 351 350 351 352 351 351 350 351 350 349 347 347 348 347 346 346 346 346 347 346 346 346 346 345 345 348 349 348 348 347 346 347 349 348 344 342 344 345 345 346 346 345 345 344 344 345 346 346 345 345
347 349 351 350 349 351 351 351 352 353 354 354 355 353 351 352 354 354 353 353 353 352 354 355 354 351 350 353 356 356 356 356 355 355 354 353 352 352 352 352 351 351 351 351 350 348 347 347 345 344 345 346 349 350 348 345 345 345 347 349 350 349 349 349 347 347 348 349 347 343 342 343 344 345 345 346 345 345 345 345 346 345 346 346 346
347 349 351 350 349 351 351 351 351 353 354 354 353 353 354 355 356 355 354 354 355 355 357 357 355 354 354 355 354 354 355 355 354 354 354 353 353 352 352 352 351 351 351 350 350 348 347 346 345 343 343 346 351 353 352 350 349 350 350 350 350 350 350 349 348 347 348 350 347 342 342 343 344 345 345 346 346 345 346 346 346 346 346 346 346
346 348 351 350 349 350 351 351 352 353 353 353 353 353 354 355 355 355 354 355 357 357 358 357 357 356 356 354 353 354 355 353 350 351 353 354 354 352 352 352 352 351 352 352 350 348 349 347 347 348 346 348 352 354 352 353 352 352 352 350 350 350 350 350 349 347 348 349 346 343 344 344 345 346 344 344 345 345 346 346 347 347 347 346 346
345 348 350 350 350 350 351 352 352 352 352 352 353 353 353 353 353 354 355 356 356 357 357 357 357 356 355 353 352 353 353 352 351 352 355 355 355 353 353 354 354 352 353 354 352 351 353 351 350 351 350 349 352 352 352 351 351 351 350 349 350 350 349 349 349 349 349 348 344 343 344 344 345 345 344 343 343 344 344 346 346 347 347 347 347
345 348 350 350 350 350 350 351 352 352 352 351 353 353 352 352 352 354 354 355 355 356 356 356 356 355 354 352 352 352 353 353 353 353 354 354 355 355 354 354 354 353 353 353 353 353 353 352 352 352 350 350 350 350 351 350 351 350 350 351 350 349 349 348 349 349 350 348 343 343 344 344 344 343 343 343 343 342 343 344 346 347 348 348 348
346 349 350 350 350 349 350 351 351 352 353 352 354 353 351 351 352 352 352 352 353 354 354 354 354 354 353 352 351 351 352 353 353 353 353 354 354 354 353 354 353 352 353 352 352 353 352 351 352 353 351 350 349 350 350 349 351 351 350 352 351 350 348 348 349 349 350 348 344 343 344 345 345 343 343 343 344 343 343 343 344 345 346 347 347
348 349 350 351 350 349 350 351 351 352 352 352 354 354 351 351 351 351 350 350 351 350 351 352 353 353 353 352 351 351 353 353 353 352 352 352 352 352 352 352 351 352 353 353 352 352 352 351 352 353 352 350 349 350 349 349 351 351 351 351 352 351 349 348 348 348 349 349 347 344 344 345 346 345 343 342 344 345 345 343 341 342 344 345 346
348 348 349 351 350 350 350 350 351 351 352 352 352 352 351 351 350 349 350 350 349 349 350 351 352 352 352 353 352 351 352 352 353 352 351 351 351 350 350 350 351 352 353 353 352 352 352 351 351 352 352 352 350 349 349 349 349 349 349 349 350 351 350 348 347 348 348 349 350 345 343 345 346 346 344 344 344 345 345 344 342 340 342 344 345
348 349 349 350 350 350 351 350 351 352 351 352 352 351 352 352 351 350 350 349 349 351 350 350 351 352 352 353 353 353 353 353 354 354 353 353 352 351 351 352 352 352 353 353 353 354 352 351 351 351 351 352 350 349 350 348 347 347 347 347 348 349 349 349 348 347 347 348 349 346 343 343 345 346 346 345 344 346 346 346 344 342 340 342 343
349 350 349 350 351 350 350 351 351 352 351 351 351 352 352 352 352 352 350 349 351 352 349 349 351 351 353 352 354 353 354 355 355 355 355 354 353 353 353 354 353 354 353 353 354 354 353 352 353 353 351 352 352 350 350 348 347 346 346 346 345 347 348 349 349 347 347 348 347 348 347 344 343 345 346 346 345 346 346 345 346 345 342 341 341
349 350 351 350 350 350 350 351 352 352 352 351 352 352 353 352 353 352 351 351 352 350 348 350 351 351 353 352 353 354 355 356 357 356 355 355 355 354 355 355 354 354 354 354 354 355 354 354 355 355 355 354 353 351 350 348 347 347 346 345 344 347 348 349 349 347 347 348 347 349 351 348 345 344 345 346 345 345 346 345 345 345 344 344 342
350 350 351 351 350 349 350 351 352 353 353 352 352 352 352 353 352 352 352 352 351 349 349 350 351 352 353 352 353 354 355 357 357 357 356 355 355 355 355 355 355 355 355 355 356 355 354 354 354 354 356 354 353 352 350 346 346 347 345 344 345 347 349 349 349 348 348 348 347 348 350 352 349 346 345 345 346 346 345 346 346 345 345 345 344
350 350 352 351 350 349 350 351 351 353 353 352 352 353 352 352 352 351 352 352 350 350 351 351 352 352 352 352 354 354 356 357 358 357 356 355 354 355 355 355 355 355 356 356 356 354 353 353 353 352 354 353 352 352 350 346 344 345 343 343 346 347 349 349 349 349 349 348 348 347 348 352 352 351 349 346 346 346 346 346 346 346 346 345 346
350 351 351 351 351 351 351 350 352 352 352 354 355 354 354 353 352 352 351 350 350 350 350 350 351 351 351 352 354 356 356 356 358 357 357 356 355 354 354 355 356 356 356 356 355 354 353 353 352 352 352 351 352 352 350 346 344 345 343 343 345 347 348 349 349 349 349 349 348 347 347 349 351 353 351 349 347 346 346 346 346 346 346 345 346
350 352 352 351 352 352 351 350 351 352 353 354 355 354 355 354 353 352 351 350 350 349 348 348 349 349 351 353 355 357 355 355 357 357 357 356 355 354 354 356 357 356 355 356 356 354 353 355 353 351 352 352 352 351 350 347 345 344 344 344 345 345 346 349 350 349 349 350 349 349 349 349 350 350 351 351 350 348 346 345 345 346 346 346 346
351 352 352 352 352 353 352 351 351 353 353 355 356 356 355 355 354 353 352 350 349 348 348 347 348 349 350 353 357 357 354 352 353 356 357 356 355 354 354 357 357 356 357 357 356 355 354 355 355 353 352 353 351 349 350 346 344 344 343 344 345 344 346 348 349 348 349 349 349 348 349 348 349 349 350 351 351 350 347 344 344 345 346 346 346
351 352 353 352 353 353 352 352 351 353 354 355 356 356 355 355 354 353 353 351 348 346 345 345 347 348 350 354 358 358 355 351 351 355 357 357 356 355 355 358 357 357 357 357 356 355 355 355 356 356 354 353 351 350 349 346 344 343 342 344 345 345 347 348 348 348 347 347 346 347 347 348 348 349 351 351 350 351 350 347 345 344 345 345 345
352 352 353 353 353 354 353 353 353 353 354 356 356 355 355 354 352 352 353 352 349 347 346 345 345 346 350 354 357 358 357 353 351 356 358 357 356 356 357 359 358 358 357 356 355 356 358 357 356 358 358 355 352 349 348 346 344 343 343 344 346 347 347 347 347 347 346 345 345 346 346 346 347 349 350 351 350 350 351 351 350 349 349 347 345
352 352 354 355 354 354 354 355 355 354 355 356 356 353 354 353 350 349 351 350 348 347 347 345 343 345 349 353 355 357 359 357 354 356 358 357 357 357 357 359 358 358 358 357 355 356 359 360 358 358 359 356 350 347 347 346 344 343 344 344 346 347 347 346 345 345 344 344 345 346 344 345 346 347 349 350 349 349 350 351 351 351 351 349 346
353 354 355 355 355 355 356 356 356 355 355 355 354 351 352 351 349 347 346 347 347 346 346 344 341 344 349 354 356 356 358 358 357 357 358 357 358 358 359 360 359 358 358 358 358 358 359 359 358 358 358 356 349 345 345 345 343 343 343 343 344 344 345 345 344 343 344 343 345 345 344 344 344 345 348 349 349 348 349 350 349 349 349 350 349
354 354 356 356 355 355 355 356 355 356 356 354 352 351 350 351 348 345 342 343 345 346 344 342 340 342 348 354 356 356 357 359 358 358 357 357 357 357 359 360 359 359 360 360 360 361 361 359 358 357 356 355 348 343 345 344 343 342 342 342 342 342 342 343 342 342 342 343 343 343 343 343 342 343 345 347 348 348 347 348 348 348 348 349 349
354 354 356 357 356 355 354 355 355 355 355 354 352 351 351 351 348 344 342 340 344 345 343 342 342 340 346 352 355 356 358 358 358 359 357 357 358 357 358 359 360 360 361 363 362 362 362 360 359 358 356 355 349 344 345 344 341 342 342 342 341 341 342 341 342 342 341 341 341 342 342 342 342 342 343 345 346 347 346 346 346 347 348 348 348
354 354 355 356 357 355 355 356 355 355 356 355 354 353 353 353 350 348 345 342 344 347 345 344 345 342 343 348 353 356 358 358 359 359 358 357 358 358 357 358 360 360 361 364 362 360 361 360 358 358 357 354 349 344 344 344 342 342 342 342 340 340 342 342 341 341 340 340 341 341 342 341 342 343 344 344 345 346 346 346 347 347 347 348 348
354 354 355 355 356 356 356 357 357 356 356 356 356 355 355 355 353 352 349 346 347 348 347 346 347 345 342 344 351 356 358 358 358 360 359 358 358 358 357 358 359 359 360 362 361 360 359 359 358 359 357 355 352 346 344 343 343 343 343 343 340 341 342 339 340 342 340 339 340 340 341 341 342 343 343 343 343 345 345 346 348 348 348 347 348
354 355 354 355 355 356 357 357 357 356 356 357 357 356 357 356 354 352 350 348 348 347 346 343 343 344 341 341 347 354 357 357 358 359 359 358 358 358 357 357 358 358 359 359 360 359 359 358 358 359 358 356 354 349 345 343 343 345 343 343 342 341 342 340 340 342 341 338 338 339 340 341 341 341 342 342 344 344 344 346 347 349 348 348 348
354 355 354 354 355 356 358 358 357 358 357 358 358 357 357 356 354 352 349 349 347 346 346 343 341 344 342 340 346 354 357 357 357 359 359 358 358 357 357 357 357 358 357 358 359 358 358 357 358 359 358 358 356 352 347 344 344 344 342 342 342 341 342 341 341 342 342 341 339 338 339 340 340 340 342 342 343 343 344 345 345 346 348 348 348
354 355 354 354 355 357 358 358 358 358 358 358 357 356 357 357 355 353 350 350 347 346 349 347 345 347 346 343 348 355 357 357 357 358 359 359 358 358 358 357 357 357 357 357 357 356 357 358 359 359 359 359 357 353 349 345 344 344 343 342 341 342 342 342 341 341 342 342 341 339 338 339 339 339 340 340 341 342 343 345 345 345 346 348 348
354 354 355 354 355 357 358 359 359 359 358 358 356 356 357 358 357 355 354 352 349 347 350 350 348 350 349 346 350 355 357 357 357 357 359 358 358 358 358 358 358 357 357 356 355 355 356 358 359 358 358 358 357 355 353 349 345 343 344 344 343 342 342 342 342 342 340 341 341 341 340 339 340 340 340 340 341 341 342 344 344 344 345 347 348
355 355 355 356 356 357 359 360 360 360 358 358 357 357 358 358 357 356 355 354 352 350 351 352 352 352 352 350 352 355 356 357 357 357 358 358 358 359 359 359 358 357 357 356 354 354 355 357 358 358 358 358 357 357 355 352 348 345 345 346 345 344 343 343 342 342 342 342 342 341 340 340 341 341 341 341 341 341 341 342 343 343 344 346 348
356 356 356 355 356 357 358 360 360 359 360 359 359 358 357 357 357 357 356 356 355 353 353 355 355 356 354 351 352 355 355 356 356 357 358 357 357 359 358 358 358 357 357 357 355 355 354 355 356 357 358 358 358 357 355 354 352 350 347 347 346 345 344 344 344 344 343 344 344 342 341 341 341 341 341 343 342 341 341 342 342 342 343 344 346
Wind_Speed
14 14 16 17 17 17 17 17 17 17 17 18 18 19 19 19 19 18 18 17 18 17 17 17 17 16 15 14 14 14 13 13 13 13 12 12 11 11 11 11 11 10 10 10 9 9 8 8 8 8 8 8 7 7 7 7 8 10 14 16 13 10 10 10 11 12 10 10 11 12 11 12 14 13 13 15 13 12 12 12 12 13 14 14 14
16 15 15 18 19 18 17 16 16 17 17 18 17 18 18 19 18 17 17 17 17 17 17 16 16 15 14 14 14 13 13 13 13 13 12 12 12 11 10 11 11 10 10 10 9 9 9 8 8 8 8 8 8 8 8 9 10 11 14 15 13 12 11 9 11 12 10 9 10 11 11 12 14 13 14 14 13 11 11 11 10 12 13 14 13
17 16 17 20 22 20 18 18 18 18 18 18 18 18 18 18 18 17 17 16 17 16 16 15 14 14 13 13 13 12 12 13 13 13 12 12 11 11 11 11 10 10 10 10 9 9 9 9 8 8 8 9 10 10 10 11 12 13 15 14 13 13 11 10 12 13 10 10 12 12 11 12 13 14 14 13 13 11 11 11 11 13 14 13 13
18 18 19 21 22 21 19 20 19 19 19 18 18 18 18 18 17 16 16 16 16 16 15 15 14 13 12 12 12 11 12 13 13 12 11 11 11 11 11 11 10 11 10 9 9 9 9 9 9 10 10 11 12 12 12 12 13 14 15 14 13 13 11 9 13 14 10 11 14 12 11 12 13 13 14 14 13 12 12 12 13 14 14 14 14
19 20 22 22 21 20 19 19 19 19 18 18 17 17 17 17 17 16 16 16 15 15 15 14 14 13 12 12 12 11 11 11 12 11 11 11 11 11 11 11 11 11 10 9 9 9 9 9 10 11 11 12 12 12 13 13 13 14 14 14 14 13 10 9 13 13 11 12 13 11 10 11 13 13 13 15 14 12 14 14 14 15 15 16 17
20 20 22 21 20 20 19 18 18 18 17 17 16 16 16 16 16 16 15 15 15 15 14 14 14 13 12 13 12 12 11 11 11 11 11 10 10 10 11 11 11 11 10 9 9 9 9 10 10 11 12 11 12 12 13 14 14 13 14 14 14 14 10 10 12 13 13 12 11 11 12 12 11 12 13 15 14 13 14 15 16 17 16 16 17
20 20 20 20 19 19 19 18 17 17 16 15 16 15 15 15 15 15 15 15 15 15 14 14 15 13 12 12 12 12 11 11 10 11 11 11 10 9 10 10 10 10 9 8 9 9 10 11 11 11 12 11 11 12 13 13 13 14 14 14 14 14 11 11 11 13 12 10 11 10 12 13 10 12 13 14 14 14 14 15 17 17 15 15 17
19 19 18 18 19 19 19 18 17 16 16 15 15 15 15 15 16 16 15 15 15 15 15 14 15 14 12 12 12 12 11 11 11 11 11 11 10 9 10 10 10 10 9 8 9 10 10 11 12 11 11 11 11 11 12 12 13 13 15 14 14 13 11 11 10 11 10 9 12 10 12 14 11 12 13 13 15 15 14 14 15 14 14 14 16
19 18 18 18 19 20 19 18 17 17 16 16 16 16 16 16 16 16 15 15 16 15 15 15 14 15 14 12 12 11 11 11 11 12 11 11 10 10 11 10 10 10 10 9 9 10 10 11 12 11 11 11 11 11 11 12 13 13 14 13 13 12 11 11 10 10 9 9 13 12 12 14 12 13 14 14 15 15 13 12 14 13 14 14 16
20 19 19 19 21 21 20 18 17 17 16 16 16 16 16 16 16 16 16 16 16 15 15 14 14 15 15 14 12 11 12 11 12 12 11 10 10 11 11 11 11 11 10 10 9 10 11 10 11 11 11 10 10 11 11 12 13 13 13 12 12 12 12 12 11 10 9 10 13 13 13 13 13 13 15 15 14 14 12 12 13 14 14 15 16
21 20 19 20 22 21 20 18 17 17 16 17 16 16 16 16 16 16 16 16 16 15 15 14 14 14 15 15 12 11 12 12 12 12 11 10 11 11 11 11 12 12 11 11 9 9 11 11 11 11 11 10 10 12 12 12 12 13 13 12 12 12 11 11 10 10 11 12 13 13 13 13 14 14 14 14 14 14 14 14 14 15 16 16 16
21 20 19 21 22 20 19 18 18 17 16 16 15 15 15 15 16 16 16 15 14 14 14 14 14 13 14 15 12 11 13 13 14 12 11 11 11 11 11 12 12 12 12 11 8 8 10 12 12 12 11 10 11 12 12 12 12 13 12 11 11 11 10 10 9 10 13 13 13 13 13 13 15 15 14 14 14 15 15 14 14 15 16 16 16
21 20 20 22 22 20 18 18 18 17 17 16 15 15 15 15 16 16 15 15 14 14 13 13 13 13 14 15 13 12 12 13 14 12 11 11 11 11 11 12 12 12 12 11 9 9 11 12 12 12 11 10 11 12 12 12 13 13 12 11 10 10 10 10 10 11 13 12 12 13 14 14 14 15 14 13 13 14 14 14 14 14 15 15 15
22 20 21 21 21 20 18 18 17 16 16 15 15 15 15 15 15 15 14 14 13 13 13 13 13 13 14 15 15 14 13 13 13 13 13 12 11 11 12 12 11 11 11 12 12 10 10 11 11 11 10 10 11 12 12 12 13 13 12 11 10 11 10 9 10 11 13 13 12 12 13 14 13 14 13 12 13 14 14 14 14 14 15 14 14
21 21 21 21 21 21 19 18 17 16 16 15 15 15 15 15 14 14 14 14 13 13 13 12 13 13 14 15 15 14 13 13 13 13 13 13 11 11 12 12 11 11 11 11 12 11 11 12 10 10 10 10 11 12 12 12 12 12 11 11 10 11 10 8 10 11 12 13 13 12 12 14 13 13 13 13 13 13 13 13 13 14 14 14 13
21 21 20 21 21 21 19 18 16 16 15 15 15 15 15 14 14 13 13 13 13 13 12 12 13 13 14 14 15 14 14 13 13 13 13 13 13 12 12 12 12 11 11 11 11 12 11 11 11 11 11 11 11 12 12 12 11 11 11 11 10 12 12 9 10 11 11 12 13 12 13 15 14 13 13 13 13 13 13 13 13 12 13 13 12
20 20 20 20 20 20 19 17 17 16 16 15 15 15 14 14 14 13 13 13 13 13 13 13 14 14 13 13 14 14 13 13 13 13 13 13 13 13 12 12 12 11 11 11 11 12 10 11 12 12 12 11 12 12 12 11 11 11 10 11 10 12 13 10 10 12 12 12 12 12 13 15 14 13 13 13 13 13 13 13 12 12 12 12 11
20 19 20 20 19 19 18 17 17 16 16 16 15 15 14 14 13 13 13 13 13 13 14 14 14 14 13 13 14 13 13 13 13 13 13 13 13 12 12 11 11 11 11 11 12 11 10 10 11 11 11 11 12 11 11 12 12 10 10 10 9 12 13 11 11 12 12 12 13 13 13 14 13 12 12 12 12 12 12 12 11 11 11 11 10
19 19 19 19 19 18 17 17 16 16 16 15 15 15 14 14 13 13 12 12 13 13 14 13 14 14 13 13 13 13 13 12 13 13 14 13 12 12 12 11 11 11 11 11 12 11 10 9 10 10 10 11 12 12 12 12 12 10 10 10 10 11 12 10 11 11 11 12 14 14 14 13 12 11 11 10 10 10 11 11 11 10 10 10 10
19 19 18 18 18 18 17 16 16 15 15 15 15 15 14 14 13 12 12 12 13 13 13 13 13 13 13 13 13 13 13 12 12 12 13 13 12 12 12 11 11 11 11 11 11 11 10 10 10 10 11 11 12 12 12 12 12 10 9 10 11 11 9 9 10 10 11 12 13 13 14 14 12 11 10 10 9 9 10 10 10 9 9 9 9
18 19 18 18 18 18 17 16 16 15 14 15 15 15 14 14 13 13 12 12 13 13 13 13 13 12 13 13 12 12 11 11 11 12 12 12 13 13 12 11 11 11 11 11 10 10 11 11 11 11 11 12 13 13 12 13 12 10 10 11 11 8 8 8 9 10 11 12 13 13 13 13 11 11 11 9 9 9 9 9 9 9 8 8 9
18 19 17 17 18 17 17 16 16 15 15 14 14 15 14 14 13 13 12 12 13 13 13 12 12 12 12 11 10 10 10 10 10 11 11 11 12 12 12 11 11 11 11 11 10 10 11 10 10 11 11 12 12 11 10 11 12 11 12 11 9 7 8 8 8 9 10 11 12 12 12 12 11 10 10 9 8 8 8 8 8 8 8 8 8
19 19 18 18 17 17 16 16 16 16 15 14 14 15 14 13 13 12 13 12 12 11 11 11 10 11 10 9 9 9 9 9 10 10 10 10 10 10 10 10 10 11 11 10 10 11 11 10 9 10 11 11 9 7 7 8 8 10 10 9 7 7 8 7 8 9 10 11 11 11 11 11 10 9 8 8 8 7 7 7 7 7 7 7 8
19 19 19 18 17 17 17 16 16 16 15 14 13 14 13 13 12 12 12 12 11 10 10 10 9 9 9 8 8 9 9 9 9 9 9 9 9 9 9 9 8 9 10 9 9 10 10 8 8 9 8 8 7 6 7 6 6 7 7 7 7 7 7 7 7 8 9 10 9 9 10 10 10 9 8 8 7 7 6 6 6 6 6 6 7
19 18 18 19 18 17 17 17 17 16 15 14 13 14 13 12 12 11 12 11 11 10 10 9 9 9 8 8 8 8 8 8 8 7 7 7 7 7 7 7 6 8 9 7 6 7 7 5 6 7 6 6 6 6 6 6 7 7 7 8 7 7 6 7 7 7 8 9 8 8 8 9 8 9 8 8 8 7 7 6 6 5 5 6 6
19 18 19 19 19 18 18 17 17 16 15 14 13 13 13 12 11 11 11 11 10 10 10 9 9 8 8 7 8 7 7 7 7 6 6 6 6 6 6 6 5 5 6 5 5 5 5 4 4 5 5 6 6 6 6 6 7 7 7 7 7 7 6 6 6 6 7 7 7 7 8 8 7 8 8 8 7 7 7 7 6 5 5 5 4
19 19 20 19 19 18 18 17 17 17 15 14 13 13 13 12 11 11 10 10 10 10 9 9 9 8 7 7 8 7 7 7 7 6 6 5 5 5 5 5 5 5 4 4 5 4 4 4 4 4 4 5 6 6 6 6 6 6 6 6 6 6 6 6 6 6 7 7 6 6 7 7 7 7 8 7 7 7 7 7 7 6 5 5 4
20 19 20 19 19 19 18 17 17 16 15 14 13 12 12 11 11 10 10 10 10 9 9 9 8 8 7 7 7 7 7 6 6 6 5 5 5 5 5 5 4 4 4 4 4 4 4 4 3 3 3 4 4 4 5 5 5 5 5 5 5 5 6 6 6 6 6 6 5 5 6 7 6 6 7 7 7 6 6 6 6 6 6 6 5
20 20 20 20 20 19 18 17 17 16 15 14 13 12 12 11 11 11 10 9 9 8 8 8 8 7 7 7 6 6 6 6 6 6 5 5 5 4 4 4 4 4 4 4 4 4 3 4 3 2 3 2 3 3 3 4 4 5 5 4 4 4 5 5 6 6 5 6 5 4 5 6 6 6 6 6 6 6 5 6 6 6 6 6 6
20 21 20 20 20 20 19 18 17 16 15 14 12 12 11 11 11 10 9 9 8 8 8 8 7 7 7 7 6 5 6 6 6 5 5 5 4 4 3 4 4 4 3 4 4 3 3 4 3 2 3 2 2 3 2 3 3 4 5 5 4 4 5 5 5 5 5 6 5 3 4 4 5 5 5 5 5 5 4 5 5 5 5 6 6
21 21 20 20 20 20 19 18 17 16 15 14 12 12 11 11 10 10 9 9 8 8 8 7 7 7 6 6 6 5 5 5 6 5 5 5 4 4 3 3 4 3 3 3 3 3 3 3 2 2 3 2 2 2 2 3 3 4 4 5 5 4 5 5 5 5 5 5 5 4 4 3 4 4 4 4 4 5 4 4 4 4 4 4 5
22 22 21 20 21 20 20 19 18 17 15 14 13 12 11 11 10 9 9 9 8 8 8 7 7 6 6 6 5 5 5 5 5 5 4 4 4 4 3 3 3 3 3 3 3 3 3 3 3 2 2 2 2 2 2 3 3 3 3 5 5 5 5 5 4 5 5 5 5 5 5 4 3 4 4 3 3 4 4 4 4 3 3 3 3
22 22 21 20 21 20 20 18 18 17 16 15 14 12 11 11 10 10 9 9 8 8 7 7 6 6 6 6 5 5 4 4 5 4 4 4 3 3 3 3 3 3 3 3 3 3 3 3 3 3 2 2 2 2 3 3 3 3 3 5 5 5 5 4 5 5 5 5 5 5 5 4 3 2 2 3 3 3 4 4 3 4 4 3 3
21 22 22 22 21 20 20 19 18 18 17 15 14 13 12 11 11 10 9 9 9 8 7 7 7 6 6 6 6 5 4 4 4 4 3 3 3 3 2 3 3 3 3 3 3 3 3 3 3 4 3 2 2 2 3 4 3 3 4 5 5 5 5 4 5 5 5 5 4 4 5 5 4 3 2 2 2 3 3 3 2 3 4 4 3
22 23 23 23 22 20 19 19 19 19 18 16 14 13 12 11 11 10 10 10 9 8 7 7 7 7 6 6 6 5 4 4 4 3 3 3 3 3 2 3 2 3 3 2 2 3 3 2 2 3 3 2 2 3 3 4 4 3 4 5 5 5 5 4 5 5 5 5 4 4 4 4 4 4 3 2 2 2 2 2 2 2 4 4 3
23 23 24 23 22 21 20 19 20 20 18 16 15 14 12 11 11 10 10 10 9 8 7 7 7 7 7 6 7 6 5 5 4 3 3 3 3 3 3 2 2 2 3 2 2 3 3 2 2 2 3 3 2 3 4 5 5 4 4 5 5 5 5 5 5 5 5 5 4 4 4 4 3 4 3 2 2 2 1 2 2 2 3 3 3
24 24 24 24 23 22 21 20 20 20 18 17 15 14 13 12 11 10 10 10 9 8 8 7 6 7 7 6 7 7 6 5 4 4 3 3 3 3 3 3 2 2 3 2 2 2 2 3 3 2 3 3 3 4 4 5 5 5 5 5 5 5 5 5 5 5 5 4 4 4 4 4 3 4 4 3 3 2 1 1 2 3 4 3 3
24 25 25 25 24 22 21 20 20 20 19 17 16 15 13 12 11 10 9 10 9 8 7 7 6 6 7 6 7 7 6 6 5 4 3 3 3 3 3 3 2 2 2 1 2 2 2 2 3 3 2 2 3 3 4 5 5 5 5 4 4 5 5 5 5 4 5 5 4 4 4 4 3 3 4 3 4 4 2 2 2 3 3 3 4
24 25 25 24 23 21 20 19 19 20 19 17 17 15 14 13 12 11 10 10 9 8 7 7 7 6 7 7 7 7 6 6 5 5 4 4 4 4 3 3 3 2 2 1 1 2 2 2 3 3 2 2 3 3 4 5 5 5 5 5 5 5 5 5 5 4 4 4 4 4 3 3 3 3 3 3 3 3 4 3 3 3 4 4 4
24 25 25 24 23 21 20 20 19 19 19 17 17 16 15 14 14 13 12 11 11 10 9 8 8 7 7 7 8 7 7 6 6 6 5 5 4 4 4 3 3 3 2 2 1 1 2 2 2 3 3 2 2 3 5 5 5 5 5 6 5 5 5 5 4 4 4 4 4 3 3 3 3 3 3 2 3 2 3 3 4 4 4 5 4
24 25 26 25 25 23 21 21 20 19 19 19 19 18 17 16 16 16 14 13 12 11 11 10 9 8 8 8 9 8 7 7 7 7 7 6 5 5 4 4 3 3 2 2 1 1 1 1 2 2 3 2 2 4 6 6 6 5 6 7 5 4 5 4 3 3 3 3 3 3 3 3 3 3 3 3 2 2 2 3 3 3 4 4 4
26 27 27 26 26 25 23 22 21 21 21 20 19 19 18 17 17 17 15 13 13 13 12 12 11 9 9 10 10 9 8 8 7 8 8 7 7 6 5 5 4 4 3 2 2 2 2 1 2 2 3 3 2 4 6 5 5 6 6 6 5 4 4 3 2 3 3 3 2 3 3 3 4 4 3 3 2 2 2 2 2 2 2 3 3
27 27 28 27 26 26 24 22 22 22 21 20 19 19 18 17 16 16 15 13 12 13 12 11 12 11 10 11 11 10 9 8 8 8 8 8 8 7 6 6 5 4 3 3 3 3 3 2 3 2 2 4 3 4 5 4 3 6 5 4 3 3 3 3 2 2 2 2 2 2 2 2 4 4 3 3 2 2 2 1 1 2 2 2 3
27 28 28 28 27 27 26 24 23 22 21 20 20 18 17 16 15 13 14 12 10 10 11 10 11 11 11 10 11 11 10 9 8 8 9 9 8 8 6 6 6 5 4 3 3 3 3 3 3 2 2 3 3 4 5 4 2 3 3 2 1 2 3 4 4 3 2 2 2 1 2 2 3 3 2 2 2 2 2 1 2 2 2 2 2
29 29 29 29 27 27 27 26 24 22 21 21 20 18 17 16 15 12 12 12 10 10 12 12 12 12 12 11 12 13 12 10 9 9 9 9 9 8 7 6 6 6 5 4 4 3 3 3 2 2 2 2 3 3 4 4 2 2 1 1 1 1 1 2 3 2 1 2 2 2 2 1 3 3 1 1 1 1 1 2 2 2 2 2 2
29 29 29 29 27 27 28 27 25 23 22 22 22 20 18 19 18 16 15 15 14 14 14 14 13 13 13 13 12 13 13 12 10 10 9 9 9 9 8 7 6 6 6 5 4 3 3 3 2 2 3 2 2 3 3 3 3 2 2 1 1 1 2 2 0 1 1 1 1 2 3 2 2 2 2 2 2 2 1 2 2 2 2 2 2
29 29 28 29 28 27 28 28 26 24 23 23 24 22 19 20 21 20 18 17 16 16 15 15 13 12 13 13 12 13 14 13 12 11 10 10 9 9 8 8 7 6 6 6 5 4 3 3 3 2 2 2 2 3 3 3 3 3 3 2 1 1 1 1 1 1 1 1 1 1 3 3 2 2 2 3 3 3 1 1 1 2 2 2 2
29 28 28 29 29 28 28 28 27 25 24 24 25 24 22 21 22 20 18 18 17 16 15 14 13 12 12 13 12 12 14 14 13 12 11 11 10 9 9 8 8 7 7 6 6 5 4 4 4 3 3 3 3 3 3 3 3 3 3 2 2 2 1 1 1 1 1 1 2 1 2 2 1 2 1 2 2 1 1 2 2 2 2 3 3
29 29 29 29 29 28 28 28 27 26 25 25 25 26 24 22 21 20 19 18 17 16 14 14 14 13 12 13 13 12 13 14 14 13 12 12 11 10 9 9 8 8 7 7 6 6 6 5 5 4 4 4 4 4 3 3 3 3 3 3 2 2 3 2 2 2 2 1 0 1 2 2 1 0 1 2 2 2 2 3 3 3 3 3 3
29 29 28 28 28 29 28 29 29 26 26 27 27 28 26 22 20 21 20 18 17 16 15 14 15 14 13 14 14 13 13 14 14 14 14 13 12 11 10 10 9 9 8 7 7 7 7 7 6 5 5 5 4 5 4 4 3 2 3 3 3 3 3 2 3 3 2 1 2 2 1 0 0 1 1 2 3 4 4 3 4 5 4 3 4
28 28 28 28 29 29 29 30 29 27 26 27 28 28 26 22 21 22 22 21 19 18 17 16 16 15 15 15 15 14 14 14 14 14 15 14 13 12 11 10 10 9 9 8 8 8 8 7 7 6 6 6 5 5 5 5 5 4 3 4 4 4 4 3 3 2 1 2 2 3 3 3 4 3 2 3 4 5 5 5 6 5 4 4 5
Wind_Direction
140 138 137 138 132 131 132 133 135 133 129 125 126 128 126 123 122 125 128 129 127 124 123 120 118 117 118 121 121 120 121 124 126 121 116 114 110 110 112 111 107 104 105 102 98 96 95 96 100 105 107 106 101 103 109 102 97 95 91 97 108 116 120 123 114 102 97 95 98 104 110 111 106 107 108 107 106 106 101 96 96 95 93 93 93
139 137 136 138 131 129 131 131 132 132 126 122 124 126 126 124 122 125 127 125 124 122 122 121 120 121 122 124 124 127 131 133 131 126 124 123 122 119 115 109 107 106 105 99 94 93 93 92 95 99 104 102 98 103 107 100 99 99 94 102 115 110 107 111 107 101 103 106 106 108 112 109 106 109 108 108 106 102 99 98 98 97 96 95 93
138 136 133 134 128 124 125 125 127 128 125 124 125 125 125 123 124 126 125 124 123 123 124 124 125 126 126 126 131 135 135 132 129 128 125 123 124 118 112 108 109 109 104 97 93 91 90 90 91 93 96 97 99 99 99 101 101 102 99 103 109 105 107 110 105 106 111 115 112 108 111 113 112 113 115 112 103 97 96 100 101 98 98 96 96
136 135 132 131 126 123 123 123 124 125 125 126 125 125 125 125 128 128 128 127 126 127 128 129 129 130 131 133 136 132 130 131 125 122 120 121 121 115 110 109 112 110 104 99 98 96 92 92 92 94 96 95 96 95 97 100 98 99 100 101 104 104 107 110 106 109 118 115 109 106 113 116 112 111 115 109 100 98 97 98 98 96 97 98 99
134 135 133 129 126 126 126 127 127 128 129 128 127 128 129 131 133 132 131 131 130 132 132 132 131 134 138 135 131 127 128 128 122 119 119 118 116 113 110 111 111 110 107 104 105 103 96 93 94 96 95 95 95 96 98 97 96 97 100 101 101 102 105 104 102 108 116 110 107 110 114 108 106 110 113 109 102 99 98 98 97 96 98 100 100
134 135 135 131 130 131 130 131 131 130 130 129 130 131 133 134 134 133 133 133 133 134 133 131 130 135 136 130 129 130 128 124 122 122 119 116 114 113 113 113 111 111 112 107 103 101 96 94 96 97 96 96 98 100 101 98 97 96 97 99 99 101 102 97 99 110 113 110 112 118 117 109 110 114 112 110 106 100 100 101 100 99 99 101 101
135 135 135 133 132 133 133 133 131 129 129 130 133 132 133 133 133 132 132 133 133 133 130 127 126 131 130 126 128 126 123 125 125 122 117 115 114 113 112 111 110 112 112 102 99 100 96 94 94 97 97 98 98 99 100 98 97 96 96 96 96 98 99 96 102 112 114 117 118 118 118 115 117 112 106 107 106 102 101 101 100 99 100 102 101
136 136 134 132 133 136 136 134 132 131 131 133 135 135 134 134 133 130 130 131 131 130 125 125 126 126 124 122 122 118 117 121 121 118 117 117 116 115 111 109 110 112 109 99 97 99 97 97 95 94 97 99 98 96 96 96 95 95 95 94 94 96 101 100 99 103 107 122 122 117 112 112 114 109 105 103 101 97 96 97 98 99 102 102 101
138 136 134 132 136 140 138 136 135 134 135 137 138 137 136 134 133 132 132 129 127 126 124 125 125 122 122 120 117 115 117 118 118 118 119 120 122 121 116 116 114 111 109 102 95 97 98 97 96 96 97 96 94 93 94 97 96 94 94 94 94 98 100 97 92 92 96 110 114 111 106 107 111 108 106 102 97 95 96 99 101 104 104 103 103
138 136 136 135 139 142 139 137 137 136 137 138 138 136 135 135 133 131 130 128 126 126 124 124 123 121 120 117 117 119 117 114 115 118 120 121 123 123 121 120 114 111 110 105 101 102 101 95 94 95 95 94 95 95 95 95 96 96 95 96 95 95 94 89 86 87 94 101 102 103 103 106 108 107 110 109 107 106 109 112 109 106 104 105 104
138 137 136 137 142 142 139 140 139 139 138 138 138 135 135 135 131 128 127 126 127 126 123 123 123 122 118 117 121 119 112 111 112 114 119 122 123 121 116 112 108 109 110 105 107 108 103 97 94 93 91 92 93 93 92 91 91 92 92 93 94 94 90 82 80 84 88 91 92 93 96 105 109 108 109 110 109 107 106 106 104 104 105 104 103
138 135 136 139 142 141 140 141 141 139 139 139 137 135 134 133 129 127 127 125 124 122 120 121 123 122 118 117 118 111 108 111 109 110 117 118 118 116 111 106 104 107 108 105 102 99 95 96 97 95 92 91 91 93 93 91 89 89 90 91 94 94 88 80 79 82 81 83 91 93 91 98 108 109 108 105 101 100 100 99 100 103 106 105 103
137 136 138 139 142 141 141 141 141 140 140 141 138 136 134 132 128 125 123 121 120 118 117 118 119 118 116 115 114 108 105 105 105 109 110 108 108 109 106 102 102 102 104 104 98 86 81 85 89 91 94 97 101 104 103 99 94 91 90 89 92 91 86 84 83 83 82 81 84 90 93 95 103 108 107 101 96 97 99 100 102 105 106 104 103
139 139 140 140 142 141 141 141 141 142 143 142 139 135 131 129 126 124 122 121 120 116 115 115 114 114 113 112 113 112 109 106 106 109 108 109 110 106 102 98 98 100 104 106 104 98 87 80 77 84 90 95 100 103 103 99 94 91 90 88 90 90 84 83 84 85 87 85 77 79 92 95 99 106 106 101 98 98 99 102 105 107 106 105 103
141 142 142 140 142 142 142 143 144 145 144 141 138 132 129 128 125 125 124 122 119 116 115 114 114 113 111 111 113 113 112 109 107 106 106 110 110 106 103 101 102 101 103 105 108 108 101 90 83 87 89 89 89 94 97 93 92 90 89 87 90 93 88 83 83 84 89 92 88 85 94 97 96 102 105 102 100 100 101 103 105 106 106 104 102
143 144 142 141 142 143 144 146 147 146 142 139 135 131 130 129 127 126 124 123 120 120 119 118 117 112 109 109 111 110 108 108 106 105 106 108 107 105 103 102 103 101 101 102 103 103 102 96 89 90 90 89 88 92 95 92 91 89 88 88 91 95 91 84 84 84 85 90 93 94 96 100 101 104 107 104 100 101 103 102 103 105 105 104 102
145 145 143 143 143 144 145 147 150 147 142 138 134 132 131 130 128 127 125 125 125 125 124 122 120 113 110 109 109 109 108 108 106 106 107 108 105 104 103 102 101 100 100 98 98 100 100 94 89 90 90 91 93 94 94 93 92 90 90 91 93 96 90 83 84 84 83 83 89 96 95 98 106 110 112 107 101 102 103 103 104 104 104 102 100
147 147 146 145 145 146 145 148 150 147 143 139 134 133 133 131 130 128 128 128 127 126 125 121 116 113 112 111 111 110 109 105 104 107 108 107 105 105 105 103 102 100 99 97 97 100 96 89 87 89 92 94 96 96 95 95 94 92 91 93 97 95 88 82 83 83 82 81 81 89 93 97 106 111 113 110 105 108 107 105 105 105 105 104 104
149 149 149 147 147 147 146 148 149 147 144 137 135 136 135 133 132 131 131 130 128 127 123 117 113 115 116 115 114 111 108 103 102 106 107 105 105 104 104 102 101 98 96 95 94 96 91 85 85 88 94 97 97 97 96 96 96 95 93 97 97 86 81 81 83 82 83 82 80 85 89 94 103 110 113 112 110 113 112 110 107 106 109 111 110
152 153 153 151 150 148 148 150 151 150 144 137 137 139 138 137 136 135 133 131 130 129 124 121 121 122 122 119 114 111 109 104 102 104 104 104 105 102 101 100 99 97 94 92 92 94 92 89 90 90 92 94 96 96 95 97 96 96 96 97 90 79 79 83 82 83 84 84 84 86 86 89 97 101 105 110 115 115 115 115 113 112 114 112 110
157 157 156 155 153 150 150 152 153 151 143 140 140 141 143 142 139 137 136 135 134 132 129 128 128 128 126 121 116 115 114 111 107 105 103 102 102 99 98 98 97 95 92 93 94 93 91 91 93 90 88 91 95 93 92 94 94 95 94 89 83 81 85 85 83 85 87 87 87 88 87 86 88 92 96 104 113 117 121 124 124 122 120 117 116
161 162 159 158 157 153 152 154 154 151 146 143 144 144 146 144 141 140 139 139 138 134 133 133 132 132 130 125 121 119 117 114 111 107 105 102 100 98 98 99 98 97 96 96 94 91 89 87 87 85 87 91 93 94 92 90 89 85 82 81 83 88 87 86 88 88 89 92 94 95 92 88 86 87 93 98 102 110 121 128 132 130 125 124 121
164 166 162 161 161 157 155 158 156 154 151 147 148 148 149 147 144 144 142 141 140 137 138 138 137 136 134 130 124 119 116 114 113 112 111 107 103 103 102 99 98 100 97 90 86 87 88 85 83 80 81 87 93 103 103 97 87 76 74 82 89 90 89 90 93 92 93 95 100 104 101 97 93 90 91 94 96 101 114 127 132 134 132 128 123
166 167 164 163 164 162 158 159 159 158 155 151 152 151 151 151 149 148 145 145 145 143 143 140 139 140 138 134 127 122 118 116 116 112 109 109 107 105 100 94 95 97 92 86 82 81 82 82 84 86 82 86 98 105 101 102 95 83 82 88 89 91 93 93 93 97 99 100 107 110 108 105 102 98 94 93 94 97 105 114 123 132 136 132 130
167 167 166 165 165 166 162 161 163 163 161 157 157 155 154 153 154 153 149 149 149 147 145 143 142 142 141 137 133 129 122 123 126 119 114 118 117 113 104 98 98 96 92 96 91 80 85 87 85 97 97 91 97 97 91 90 86 82 81 81 86 92 93 92 94 98 101 105 112 115 113 110 109 106 101 95 93 93 95 97 103 118 131 134 137
170 170 168 167 167 168 165 164 166 166 166 162 159 158 158 157 157 156 153 152 149 149 147 148 147 144 144 140 137 135 128 129 132 130 127 125 124 122 115 109 107 101 96 100 98 83 92 95 81 90 94 93 92 84 80 77 77 78 77 78 81 85 89 93 96 99 104 110 114 116 116 115 118 114 108 102 96 93 92 90 88 95 111 125 133
172 171 170 168 168 170 167 166 168 168 168 166 162 160 162 162 159 159 157 154 152 151 150 150 150 146 145 143 141 138 132 130 131 133 134 132 129 123 119 119 113 107 103 101 102 93 89 87 79 78 82 93 94 87 82 77 78 79 79 79 81 84 88 92 97 102 108 115 119 121 120 122 126 125 119 111 104 99 95 93 88 87 94 108 122
171 171 170 169 170 171 168 168 170 170 169 169 166 163 165 163 160 162 158 156 156 152 151 151 150 148 146 146 142 136 131 129 130 133 136 134 130 127 127 128 122 113 108 103 103 100 98 93 85 82 84 95 99 96 92 89 87 82 79 78 85 89 90 92 98 105 109 116 122 119 121 124 126 132 131 122 114 106 99 95 91 88 87 96 110
172 172 171 171 171 170 169 170 171 172 171 170 170 166 166 165 163 164 160 160 159 153 152 151 151 152 150 149 145 136 131 127 125 126 130 129 127 131 130 126 121 117 114 108 105 106 109 103 100 103 104 105 111 108 99 100 95 85 78 73 83 94 97 97 98 104 107 114 127 122 118 124 127 132 132 131 127 116 109 102 92 89 86 89 99
174 173 172 172 171 170 171 172 171 173 173 172 172 168 167 166 164 163 163 164 162 156 154 154 154 154 155 155 150 139 128 124 124 121 123 124 126 129 124 125 122 123 124 115 116 121 119 114 119 125 122 133 132 126 114 107 100 88 81 74 80 92 99 101 100 106 107 111 126 119 108 117 126 130 129 140 138 125 120 115 102 93 87 87 92
175 174 174 173 172 171 172 173 173 173 174 174 173 170 169 167 165 162 163 167 167 162 161 161 158 155 158 159 154 143 128 124 125 123 126 126 128 130 126 132 127 128 125 118 127 128 122 124 130 123 126 155 169 150 133 127 110 84 79 76 77 83 92 99 100 102 102 105 112 113 109 104 119 131 134 146 137 129 135 130 118 106 98 94 92
177 177 175 173 173 173 173 174 174 174 176 176 174 173 171 169 167 163 164 169 168 167 167 166 161 158 160 160 155 149 135 127 127 126 131 129 129 131 127 129 125 126 127 123 124 126 129 136 146 138 125 161 194 174 158 148 115 79 77 80 78 79 85 92 95 94 94 97 102 116 120 110 115 127 136 152 136 127 139 140 135 133 128 115 111
178 177 175 173 174 174 174 175 176 177 179 178 175 175 174 171 170 167 166 168 169 171 171 168 166 163 164 166 164 158 147 135 132 131 136 136 130 129 127 124 119 116 122 126 125 134 139 142 155 149 141 167 182 178 175 155 119 84 74 78 80 81 84 88 88 86 89 93 98 112 122 126 129 122 136 155 139 136 147 146 152 162 162 157 153
177 176 176 175 174 174 175 177 178 179 181 180 177 177 175 173 172 170 169 169 170 173 171 171 170 167 171 175 175 170 162 151 142 141 144 142 134 133 130 120 116 116 123 132 132 133 138 156 163 142 145 164 157 171 173 155 130 91 72 76 83 83 84 85 82 85 84 88 96 105 118 133 137 138 161 171 150 157 160 152 164 175 182 185 179
178 177 177 176 174 175 176 178 180 181 182 183 180 178 176 174 174 172 173 172 172 174 172 172 172 172 175 178 183 181 176 170 157 152 152 151 143 136 135 120 119 125 121 133 130 119 131 151 141 129 136 129 127 160 161 151 136 102 79 79 88 87 85 83 83 90 89 91 97 103 113 125 133 145 167 180 155 157 170 169 170 177 191 199 198
179 177 177 176 176 176 177 179 180 181 183 185 183 181 178 175 176 173 176 177 175 177 174 173 174 177 179 179 185 185 187 188 176 170 163 163 154 139 142 135 132 130 118 130 131 118 125 113 83 85 106 108 122 144 149 148 139 120 99 90 90 89 88 87 88 90 90 94 98 103 109 114 126 144 155 166 155 148 184 193 193 195 197 199 204
180 178 176 177 178 177 179 181 181 182 183 184 183 183 182 179 178 176 179 182 181 181 179 178 177 179 183 180 182 183 192 200 194 188 177 172 167 154 154 149 153 140 123 143 140 125 129 111 101 87 96 121 131 132 146 151 145 132 108 95 91 90 91 94 93 91 91 96 101 107 108 112 126 145 154 160 159 161 201 204 206 212 210 205 211
180 180 178 178 179 178 180 182 182 183 182 183 184 184 185 184 184 184 185 187 189 189 185 186 187 186 188 183 180 181 188 201 201 197 191 186 181 176 167 158 167 158 140 160 136 130 136 118 122 122 122 137 123 133 149 147 146 132 106 98 99 96 99 101 97 96 103 104 104 105 106 112 128 139 149 156 160 169 183 203 216 213 224 226 222
181 181 180 179 180 179 181 182 182 183 182 182 183 184 186 189 191 192 194 196 198 199 194 193 195 196 193 189 186 183 185 196 200 198 198 193 189 189 184 179 181 175 173 170 138 136 135 119 126 135 148 144 116 133 146 143 143 128 109 109 108 104 107 111 110 109 108 106 106 111 107 109 124 137 144 153 159 166 175 188 204 206 231 246 235
182 181 180 180 181 180 180 182 183 183 181 180 183 185 188 192 195 197 199 201 203 205 205 202 203 202 198 194 194 191 188 191 197 199 198 197 193 192 193 194 190 186 191 182 159 135 123 123 130 137 156 145 106 122 142 145 136 120 118 122 117 117 120 119 123 126 122 115 111 107 100 100 112 132 136 142 153 162 176 191 202 201 216 239 245
183 181 181 182 183 182 181 182 183 183 183 184 186 188 191 192 195 199 201 202 203 204 207 209 210 207 201 199 199 198 195 194 197 201 202 202 198 195 197 199 200 195 196 196 183 121 119 143 153 155 165 148 105 117 138 143 135 125 127 130 125 121 125 129 136 141 137 124 116 103 96 100 108 125 137 138 144 152 170 196 210 210 210 223 241
184 183 183 184 184 185 185 184 184 186 188 188 188 190 193 194 194 199 202 201 201 204 208 210 211 208 202 203 204 203 202 201 201 203 207 208 204 201 199 201 205 201 203 205 193 182 184 187 188 183 167 154 120 112 134 148 144 134 133 139 142 142 145 154 160 163 154 132 126 118 104 98 106 118 131 128 134 146 157 180 198 229 229 231 234
185 185 186 186 186 188 189 187 187 189 191 191 190 192 194 195 195 198 200 201 203 205 209 208 209 209 205 206 208 208 208 206 205 206 210 212 210 208 202 202 204 201 207 208 197 202 201 200 203 191 166 164 143 119 140 157 136 128 140 151 150 156 162 175 189 181 163 143 136 129 103 88 98 104 113 122 133 140 138 157 177 228 240 243 244
188 187 188 188 188 190 190 189 190 190 192 192 191 192 191 191 191 193 195 199 201 201 205 206 207 210 208 207 209 210 211 208 207 207 210 213 211 211 208 205 205 203 208 209 206 213 210 212 211 196 186 172 145 130 145 159 136 126 152 147 133 189 174 171 173 171 189 175 163 129 107 113 119 105 107 126 132 141 148 177 188 212 231 242 251
190 190 190 189 189 190 189 189 189 189 191 192 190 188 186 184 182 181 185 192 197 198 204 208 208 209 211 210 208 209 210 209 209 209 211 214 213 214 212 209 209 209 211 217 218 220 220 222 217 208 214 191 138 136 148 161 157 136 183 150 140 193 110 121 148 149 225 206 171 152 122 182 165 136 173 158 134 179 174 191 201 209 221 232 243
192 191 191 191 190 190 189 189 190 190 192 191 188 186 185 184 182 183 186 191 199 204 208 211 210 210 211 211 208 207 208 208 209 209 210 213 214 215 214 213 213 212 214 222 225 223 226 226 225 219 218 205 159 150 154 160 150 156 204 240 295 341 53 45 97 132 228 258 232 181 155 188 193 162 214 222 193 199 200 208 204 208 220 222 231
191 191 191 191 191 190 189 190 190 191 192 190 188 187 189 190 190 193 196 197 203 209 211 213 213 212 210 208 206 205 205 206 207 209 209 211 213 214 214 213 212 214 216 221 225 226 228 220 217 220 207 197 183 170 165 158 160 186 207 212 225 291 24 335 285 121 159 167 281 255 160 158 218 213 211 223 209 185 182 232 223 214 221 221 227
190 189 191 192 191 189 188 189 190 191 191 190 189 191 195 194 193 197 200 203 208 210 208 209 210 209 206 204 204 204 204 205 207 208 208 208 210 210 211 211 211 215 215 219 223 222 219 214 211 211 203 198 192 189 184 173 180 182 188 217 207 194 227 245 297 323 296 151 144 190 143 121 250 256 247 264 247 208 206 237 247 246 235 224 224
191 190 191 191 190 189 187 187 189 191 192 191 190 196 199 195 193 197 200 204 209 210 207 205 204 204 203 202 203 204 205 206 208 210 210 209 209 208 207 208 210 213 214 217 220 218 216 215 214 212 206 204 202 200 198 200 212 174 156 201 218 203 222 225 217 223 258 307 144 145 116 116 228 149 21 296 291 287 261 238 243 249 243 234 229
192 191 190 189 188 188 187 188 189 190 191 191 191 197 200 196 195 197 199 201 203 205 205 202 198 198 200 201 201 205 207 209 210 211 213 212 210 208 207 208 209 212 214 216 217 218 218 217 218 218 212 208 204 203 204 205 222 211 161 180 199 211 226 235 234 216 180 231 275 290 291 239 328 55 6 313 321 301 282 268 261 254 244 238 233
191 190 189 189 188 188 188 189 189 189 190 190 192 196 197 197 198 198 199 200 198 198 199 197 194 194 199 202 203 206 210 212 212 211 214 213 211 210 209 208 208 210 214 215 217 217 217 216 217 218 216 213 209 205 209 211 213 220 212 203 209 218 220 224 239 248 255 249 262 287 301 338 349 333 309 304 301 288 276 265 262 259 251 246 240